DW0942 Weather Reports


time (UTC)temp
F
wind
direction
speed
knots
gust
knots
rain 1hr
in
rain 24hr
in
rain mn
in
humidity
%
barometer
mb
20260505064521 53 58 0.9 7.8 0.00 0.00 0.00 88 1029.9
20260505063034 53 38 0.0 4.3 0.00 0.00 0.00 88 1029.9
20260505061523 53 219 0.0 2.6 0.00 0.00 0.00 87 1029.9
20260505060016 53 53 0.9 2.6 0.00 0.00 0.00 87 1029.9
20260505054523 54 330 0.9 7.8 0.00 0.00 0.00 86 1029.6
20260505053023 54 262 0.9 5.2 0.00 0.00 0.00 85 1029.6
20260505051528 54 334 1.7 7.8 0.00 0.00 0.00 85 1029.8
20260505041524 55 13 1.7 10.4 0.00 0.00 0.00 83 1029.9
20260505040028 55 215 1.7 8.7 0.00 0.00 0.00 82 1030.0
20260505034517 56 4 1.7 8.7 0.00 0.00 0.00 80 1029.9
20260505033031 56 71 1.7 7.0 0.00 0.00 0.00 79 1030.1
20260505031524 56 25 1.7 7.8 0.00 0.00 0.00 79 1030.0
20260505030026 57 229 1.7 6.1 0.00 0.00 0.00 79 1030.1
20260505024528 57 71 1.7 6.1 0.00 0.00 0.00 79 1030.2
20260505023016 57 240 1.7 5.2 0.00 0.00 0.00 77 1030.2
20260505021541 57 315 0.9 7.8 0.00 0.00 0.00 78 1030.3
20260505020025 57 41 1.7 8.7 0.00 0.00 0.00 77 1030.2
20260505014527 58 207 1.7 7.8 0.00 0.00 0.00 77 1030.3
20260505013012 58 323 1.7 8.7 0.00 0.00 0.00 77 1030.5
20260505011526 58 132 1.7 5.2 0.00 0.00 0.00 76 1030.7
20260505010024 58 297 0.9 6.1 0.00 0.00 0.00 77 1031.0
20260505004536 58 88 2.6 7.8 0.00 0.00 0.00 77 1031.2
20260505003028 58 256 1.7 6.1 0.00 0.00 0.00 77 1031.5
20260505001515 58 39 0.9 7.0 0.00 0.00 0.00 77 1031.6
20260505000022 58 314 0.9 6.1 0.00 0.00 0.00 77 1031.8
20260504234526 57 38 1.7 8.7 0.00 0.00 0.00 77 1032.1
20260504233027 57 227 1.7 6.1 0.00 0.00 0.00 78 1032.0
20260504231528 57 169 2.6 7.0 0.00 0.00 0.00 77 1032.2
20260504230019 57 316 0.9 6.1 0.00 0.00 0.00 78 1032.3
20260504224508 57 158 2.6 8.7 0.00 0.00 0.00 78 1032.2
20260504223004 57 242 1.7 5.2 0.00 0.00 0.00 79 1032.2
20260504221512 57 109 1.7 8.7 0.00 0.00 0.00 78 1032.1
20260504220021 56 311 1.7 6.1 0.00 0.00 0.00 80 1032.3
20260504214521 56 330 0.9 5.2 0.00 0.00 0.00 80 1032.5
20260504213004 56 150 1.7 6.1 0.00 0.00 0.00 81 1032.3
20260504211506 56 274 1.7 8.7 0.00 0.00 0.00 80 1032.3
20260504210012 56 196 0.9 5.2 0.00 0.00 0.00 80 1032.4
20260504204519 55 250 1.7 9.6 0.00 0.00 0.00 81 1032.3
20260504203020 55 304 1.7 7.0 0.00 0.00 0.00 82 1032.3
20260504201505 55 224 2.6 6.1 0.00 0.00 0.00 83 1032.3
20260504200011 55 229 0.9 7.0 0.00 0.00 0.00 83 1032.1
20260504194518 55 86 0.9 3.5 0.00 0.00 0.00 83 1032.0
20260504193020 55 224 2.6 6.1 0.00 0.00 0.00 82 1032.1
20260504191526 55 111 1.7 6.1 0.00 0.00 0.00 81 1032.1
20260504190010 55 250 2.6 9.6 0.00 0.00 0.00 80 1031.8
20260504184516 55 280 2.6 7.8 0.00 0.00 0.00 79 1031.6
20260504183018 55 27 2.6 7.8 0.00 0.00 0.00 79 1031.7
20260504181524 55 210 0.9 7.0 0.00 0.00 0.00 83 1031.6
20260504180023 55 214 0.9 7.0 0.00 0.00 0.00 83 1031.7
20260504174511 55 133 1.7 9.6 0.00 0.00 0.00 82 1031.7
20260504173014 55 285 2.6 7.8 0.00 0.00 0.00 82 1031.7
20260504171522 55 228 1.7 7.8 0.00 0.00 0.00 82 1031.7
20260504081534 56 219 0.9 6.1 0.00 0.00 0.00 83 1032.9